Asturias

Airport
ICAO code: 
LEAS
Summary
ICAO Region: 
EUR
Territory: 
Location: 
Asturias, Spain,
Coordinates: 
Aerial View: 
43° 33' 34.417" N, 6° 1' 51.663" W
Airport BS: 
Bird Strike
Airport WX: 
Fog
Metar
Observation
LEAS 081030Z 25017KT 9999 FEW020 SCT060 05/03 Q1013 TEMPO 3000 SHRA SCT025TCU
Station
Asturias / Aviles
Date/Time
2021-12-08 10:30:00
Wind direction
250°
Wind speed
17 kts
Lowest cloud amount
few clouds
Temperature
5°C
Dew point
3°C
Humidity
86%
QNH
1013 hPa
Weather condition
n/a

Description

International airport serving Asturias in northern spain.

Climatology

Temperate Marine climate/Oceanic climate (Köppen climate classification Cfb). Moderately cool summer and comparatively warm winter with a temperature range of only 14°C. Prevailing south-westerly winds from the Atlantic Ocean.

Runways

Designator Length Width Surface Rops
11/29 2200 45 ASP Yes/Yes
Airport map: 
Aerial View: 

SKYbrary Partners:

Safety knowledge contributed by: